N7QNM-13 Weather Reports


time (UTC)temp
F
wind
direction
speed
knots
gust
knots
rain 1hr
in
rain 24hr
in
rain mn
in
humidity
%
barometer
mb
20201025141522 26 40 7.0 8.7 0.00 0.00 0.00 47 1033.0
20201025140533 26 30 7.8 11.3 0.00 0.00 0.00 47 1032.9
20201025135534 26 47 6.1 8.7 0.00 0.00 0.00 48 1032.9
20201025134525 26 29 4.3 6.1 0.00 0.00 0.00 49 1032.7
20201025133524 26 328 6.1 10.4 0.00 0.00 0.00 48 1032.6
20201025132522 27 320 4.3 6.1 0.00 0.00 0.00 47 1032.6
20201025131537 27 334 5.2 8.7 0.00 0.00 0.00 46 1032.4
20201025130535 27 346 6.1 9.6 0.00 0.00 0.00 48 1032.5
20201025125523 27 344 6.1 7.8 0.00 0.00 0.00 47 1032.5
20201025124524 27 40 6.1 7.8 0.00 0.00 0.00 47 1032.4
20201025123526 27 15 6.1 8.7 0.00 0.00 0.00 47 1032.3
20201025122538 27 34 6.1 8.7 0.00 0.00 0.00 48 1032.2
20201025121524 27 18 4.3 7.0 0.00 0.00 0.00 48 1032.1
20201025120534 28 24 6.1 7.8 0.00 0.00 0.00 48 1032.1
20201025115530 28 15 7.8 11.3 0.00 0.00 0.00 49 1032.0
20201025114523 27 32 7.0 10.4 0.00 0.00 0.00 50 1031.9
20201025113523 25 26 5.2 8.7 0.00 0.00 0.00 54 1031.7
20201025112526 24 339 1.7 2.6 0.00 0.00 0.00 56 1031.6
20201025111535 25 11 0.9 2.6 0.00 0.00 0.00 55 1031.5
20201025110523 25 45 3.5 7.8 0.00 0.00 0.00 55 1031.4
20201025105524 25 5 2.6 5.2 0.00 0.00 0.00 56 1031.2
20201025104524 25 35 0.0 2.6 0.00 0.00 0.00 56 1031.2
20201025103527 25 58 3.5 6.1 0.00 0.00 0.00 57 1030.9
20201025102530 25 52 3.5 5.2 0.00 0.00 0.00 58 1030.7
20201025101528 24 68 0.9 3.5 0.00 0.00 0.00 60 1030.6
20201025100528 24 206 0.9 1.7 0.00 0.00 0.00 59 1030.6
20201025095526 24 203 0.0 1.7 0.00 0.00 0.00 58 1030.6
20201025094527 24 193 1.7 4.3 0.00 0.00 0.00 58 1030.4
20201025093523 24 175 2.6 3.5 0.00 0.00 0.00 58 1030.3
20201025092522 25 169 4.3 5.2 0.00 0.00 0.00 58 1030.2
20201025091532 26 191 3.5 4.3 0.00 0.00 0.00 56 1030.2
20201025090530 27 5 1.7 5.2 0.00 0.00 0.00 54 1030.1
20201025085525 28 11 3.5 6.1 0.00 0.00 0.00 54 1029.9
20201025084522 28 14 4.3 6.1 0.00 0.00 0.00 54 1029.8
20201025083528 27 16 6.1 9.6 0.00 0.00 0.00 56 1029.7
20201025082524 27 11 5.2 7.0 0.00 0.00 0.00 57 1029.7
20201025081532 27 357 4.3 7.8 0.00 0.00 0.00 57 1029.4
20201025080525 27 9 4.3 7.0 0.00 0.00 0.00 57 1029.4
20201025075529 28 5 5.2 7.0 0.00 0.00 0.00 56 1029.4
20201025074521 28 338 7.0 9.6 0.00 0.00 0.00 55 1029.1
20201025073533 28 344 7.0 8.7 0.00 0.00 0.00 56 1029.1
20201025072528 28 353 6.1 8.7 0.00 0.00 0.00 57 1029.2
20201025071526 28 354 5.2 7.0 0.00 0.00 0.00 57 1028.9
20201025070528 28 344 4.3 6.1 0.00 0.00 0.00 57 1029.0
20201025065529 28 288 3.5 5.2 0.00 0.00 0.00 56 1028.9
20201025064528 29 288 2.6 4.3 0.00 0.00 0.00 54 1028.8
20201025063525 30 293 4.3 7.8 0.00 0.00 0.00 52 1028.8
20201025062521 30 329 2.6 5.2 0.00 0.00 0.00 52 1028.9
20201025061529 29 289 3.5 4.3 0.00 0.00 0.00 54 1028.8
20201025060532 28 272 2.6 3.5 0.00 0.00 0.00 57 1028.6
20201025055526 28 252 1.7 2.6 0.00 0.00 0.00 58 1028.5
20201025054523 29 1 0.9 3.5 0.00 0.00 0.00 56 1028.2
20201025053523 29 251 2.6 4.3 0.00 0.00 0.00 56 1028.1
20201025052531 29 288 1.7 3.5 0.00 0.00 0.00 58 1028.0
20201025051533 29 308 5.2 7.8 0.00 0.00 0.00 56 1027.8
20201025050535 26 196 0.9 3.5 0.00 0.00 0.00 64 1028.0
20201025045529 26 225 0.0 0.9 0.00 0.00 0.00 62 1028.0
20201025044530 27 173 1.7 1.7 0.00 0.00 0.00 60 1027.7
20201025043527 28 177 2.6 3.5 0.00 0.00 0.00 59 1027.6
20201025042523 28 164 0.9 2.6 0.00 0.00 0.00 59 1027.6
20201025041530 29 235 2.6 3.5 0.00 0.00 0.00 59 1027.4
20201025040531 29 192 1.7 2.6 0.00 0.00 0.00 58 1027.3
20201025035525 29 216 1.7 2.6 0.00 0.00 0.00 58 1027.2
20201025034527 30 206 0.9 1.7 0.00 0.00 0.00 56 1027.2
20201025033521 30 125 1.7 2.6 0.00 0.00 0.00 55 1027.0
20201025032521 31 87 2.6 4.3 0.00 0.00 0.00 53 1027.0
20201025031528 32 79 4.3 7.0 0.00 0.00 0.00 52 1026.9
20201025030525 33 78 5.2 7.8 0.00 0.00 0.00 52 1026.8
20201025025532 33 57 5.2 8.7 0.00 0.00 0.00 50 1026.7
20201025024530 33 53 7.0 8.7 0.00 0.00 0.00 49 1026.4
20201025023522 34 53 5.2 13.0 0.00 0.00 0.00 49 1026.5
20201025022521 34 53 7.8 11.3 0.00 0.00 0.00 49 1026.4
20201025021522 33 58 7.0 9.6 0.00 0.00 0.00 51 1026.4
20201025020530 33 58 2.6 5.2 0.00 0.00 0.00 51 1026.1
20201025015526 34 41 4.3 6.1 0.00 0.00 0.00 51 1026.1
20201025014534 34 53 4.3 7.0 0.00 0.00 0.00 50 1026.1
20201025013523 35 59 5.2 7.0 0.00 0.00 0.00 50 1026.1
20201025012525 35 45 6.1 8.7 0.00 0.00 0.00 49 1025.8
20201025011525 36 51 7.0 10.4 0.00 0.00 0.00 49 1025.8
20201025010536 36 68 8.7 13.0 0.00 0.00 0.00 48 1025.7
20201025005536 36 84 8.7 11.3 0.00 0.00 0.00 48 1025.5
20201025004529 37 76 9.6 11.3 0.00 0.00 0.00 48 1025.3
20201025003525 37 77 7.0 13.0 0.00 0.00 0.00 47 1025.0
20201025002528 38 49 7.0 11.3 0.00 0.00 0.00 47
20201025001538 39 65 6.1 7.8 0.00 0.00 0.00 45
20201025000535 40 65 7.8 13.0 0.00 0.00 0.00 43 1024.9
20201024235539 41 53 8.7 13.0 0.00 0.00 0.00 42 1024.9
20201024234524 41 80 6.1 8.7 0.00 0.00 0.00 42 1024.7
20201024233533 42 63 8.7 13.0 0.00 0.00 0.00 41 1024.5
20201024232534 42 38 9.6 13.0 0.00 0.00 0.00 40 1024.4
20201024231526 43 31 5.2 7.0 0.00 0.00 0.00 40 1024.3
20201024230539 42 41 7.8 9.6 0.00 0.00 0.00 40 1024.2
20201024225524 43 55 11.3 14.8 0.00 0.00 0.00 42 1024.3
20201024224544 43 31 10.4 15.6 0.00 0.00 0.00 40 1024.0
20201024223527 43 53 10.4 13.0 0.00 0.00 0.00 40 1024.0
20201024222529 43 68 10.4 15.6 0.00 0.00 0.00 40 1024.1
20201024221525 43 65 7.8 11.3 0.00 0.00 0.00 41 1023.8
20201024220523 42 48 7.8 10.4 0.00 0.00 0.00 41 1023.8
20201024215535 42 52 9.6 14.8 0.00 0.00 0.00 42 1023.8
20201024214523 44 44 7.8 12.2 0.00 0.00 0.00 41 1023.7
20201024213526 43 54 8.7 12.2 0.00 0.00 0.00 41 1023.6
20201024212525 41 43 9.6 13.0 0.00 0.00 0.00 44 1023.5
20201024211533 42 28 10.4 17.4 0.00 0.00 0.00 42 1023.6
20201024210524 41 50 8.7 13.0 0.00 0.00 0.00 46 1023.6
20201024205522 41 56 11.3 20.9 0.00 0.00 0.00 45 1023.7
20201024203030 41 15 7.0 11.3 0.00 0.00 0.00 50 1023.5
20201024202027 40 51 7.0 9.6 0.00 0.00 0.00 50 1023.7
20201024201041 40 47 7.8 10.4 0.00 0.00 0.00 51 1023.9
20201024200033 40 38 5.2 7.0 0.00 0.00 0.00 52 1023.9
20201024195033 40 61 4.3 5.2 0.00 0.00 0.00 53 1023.9
20201024194028 38 65 6.1 11.3 0.00 0.00 0.00 54 1023.7
20201024193023 39 37 7.0 10.4 0.00 0.00 0.00 54 1023.5
20201024192027 38 65 4.3 6.1 0.00 0.00 0.00 56 1023.5
20201024191028 38 60 6.1 9.6 0.00 0.00 0.00 57 1023.4
20201024190044 38 80 4.3 6.1 0.00 0.00 0.00 59 1023.3
20201024185040 38 48 4.3 6.1 0.00 0.00 0.00 61 1023.2
20201024184026 38 83 5.2 8.7 0.00 0.00 0.00 62 1023.2
20201024183028 37 48 7.8 10.4 0.00 0.00 0.00 62 1023.1
20201024182026 37 54 5.2 7.0 0.00 0.00 0.00 64 1023.1
20201024181028 37 55 3.5 6.1 0.00 0.00 0.00 65 1022.9
20201024180040 37 48 6.1 9.6 0.00 0.00 0.00 64 1022.8
20201024175025 37 65 6.1 10.4 0.00 0.00 0.00 64 1022.7
20201024174022 37 37 5.2 7.8 0.00 0.00 0.00 65 1022.6
20201024173040 37 44 7.0 8.7 0.00 0.00 0.00 67 1022.5
20201024172026 38 45 6.1 7.8 0.00 0.00 0.00 63 1022.3
20201024171024 38 46 7.8 11.3 0.00 0.00 0.00 61 1022.1
20201024170032 39 12 6.1 8.7 0.00 0.00 0.00 65 1022.1
20201024165028 39 29 7.0 10.4 0.00 0.00 0.00 70 1021.9
20201024164024 39 41 4.3 7.8 0.00 0.00 0.00 72 1021.6
20201024163029 39 67 2.6 3.5 0.00 0.00 0.00 74 1021.4
20201024162040 39 57 3.5 5.2 0.00 0.00 0.00 74 1021.3
20201024161031 39 25 3.5 4.3 0.00 0.00 0.00 74 1021.1
20201024160035 39 57 3.5 5.2 0.00 0.00 0.00 73 1021.0
20201024155030 39 43 3.5 4.3 0.00 0.00 0.00 71 1020.6
20201024154030 39 5 4.3 7.8 0.00 0.00 0.00 71 1020.4
20201024153027 39 26 4.3 7.0 0.00 0.00 0.00 70 1020.2
20201024152027 39 47 6.1 8.7 0.00 0.00 0.00 71 1020.2
20201024151029 39 15 6.1 9.6 0.00 0.00 0.00 72 1020.0
20201024150053 39 248 0.9 2.6 0.00 0.00 0.00 74 1019.8
20201024145028 39 292 4.3 6.1 0.00 0.00 0.00 75 1019.5
20201024144046 39 283 2.6 5.2 0.00 0.00 0.00 77 1019.4
20201024143026 39 6 2.6 5.2 0.00 0.00 0.00 76 1019.2